Location: Santa Maria di Sala
(45.5070°N, 12.0300°E)
Time: 07:42:37
(UTC+02:00)

STRAND 1 - Pass Details

Date: 01 March 2024
Orbit: 764 x 779 km, 98.4° (Epoch: 16 April)

Event Time Altitude Azimuth Distance (km) Brightness Sun altitude
Rises 04:23:41 0° 122° (ESE) 3,255 ? -26.2°
Reaches altitude 10° 04:26:31 10° 107° (ESE) 2,332 ? -25.7°
Maximum altitude 04:30:12 20° 61° (ENE) 1,733 ? -25.1°
Drops below altitude 10° 04:33:54 10° 15° (NNE) 2,341 ? -24.4°
Sets 04:36:45 0° 359° (N) 3,272 ? -24.0°
